Regional Weather Roundup
Issued by NWS

Home | Current Version | Previous Version | Text Only | Print | Product List | Glossary On
Versions: 1 2 3 4 5 6 7 8 9 10 11 12 13 14 15 16 17 18 19 20 21 22 23 24 25 26 27 28 29 30 31 32 33 34 35 36 37 38 39 40 41 42 43 44 45 46 47 48 49 50
000
ASUS43 KLSX 310207
RWRMO

WEATHER SUMMARY FOR MISSOURI
NATIONAL WEATHER SERVICE SPRINGFIELD MO
900 PM CDT SAT JUL 30 2016

NOTE: "FAIR" INDICATES FEW OR NO CLOUDS BELOW 12,000 FEET WITH NO
       SIGNIFICANT WEATHER AND/OR OBSTRUCTIONS TO VISIBILITY.
       CURRENT SKY AND/OR WEATHER CONDITIONS ARE NOT AVAILABLE FOR
       CHILLICOTHE AND FARMINGTON.

MOZ001>031-035>038-043-044-053-054-310300-
...NORTHERN AND WESTERN MISSOURI...

CITY           SKY/WX    TMP DP  RH WIND       PRES   REMARKS
KANSAS CTY INT CLEAR     79  65  62 E8        29.96R
KANSAS C DTWN  CLEAR     80  66  62 E7        29.94R
LEE`S SUMMIT   CLEAR     77  68  73 E6        29.97R
ST JOSEPH      CLEAR     77  65  66 SE6       29.94F
CHILLICOTHE      N/A     73  68  84 CALM      29.98R
KIRKSVILLE     CLEAR     72  64  76 CALM      29.98R

$$
MOZ066>068-077>081-088>096-101>105-310300-
...SOUTHWEST MISSOURI...

CITY           SKY/WX    TMP DP  RH WIND       PRES   REMARKS
SPRINGFIELD    PTCLDY    79  68  69 E5        29.97S
JOPLIN         CLEAR     79  70  74 SE5       29.96R
BRANSON        MOCLDY    75  72  88 CALM      29.99F

$$
MOZ032>034-039>042-045>050-055>058-069>072-310300-
...CENTRAL MISSOURI...

CITY           SKY/WX    TMP DP  RH WIND       PRES   REMARKS
COLUMBIA       CLEAR     74  68  81 CALM      29.98R
JEFFERSON CITY CLEAR     73  67  81 SE3       29.96R
ROLLA          CLEAR     74  67  78 CALM      29.97S
SEDALIA        CLEAR     76  67  73 E3        29.99R
WHITEMAN AFB   CLEAR     75  70  86 E5        29.96R
OSAGE BEACH    CLEAR     74  70  87 CALM      29.98R

$$
MOZ051-052-059>065-310300-
...EAST CENTRAL MISSOURI...

CITY           SKY/WX    TMP DP  RH WIND       PRES   REMARKS
ST LOUIS INTL  PTCLDY    79  66  64 N5        29.96S
SPIRIT OF STL  CLEAR     74  70  87 CALM      29.95R
ST CHARLES     CLEAR     76  70  82 CALM      29.95R

$$
MOZ072>076-082>087-097>100-106>115-310300-
...SOUTH CENTRAL AND SOUTHEAST MISSOURI...

CITY           SKY/WX    TMP DP  RH WIND       PRES   REMARKS
CAPE GIRARDEAU CLOUDY    77  73  87 E5        29.94S
FARMINGTON     CLOUDY    75  68  78 CALM      29.98S
POPLAR BLUFF   MOCLDY    78  75  90 SE3       29.92F
WEST PLAINS    PTCLDY    77  72  84 W3        30.00S

$$



USA.gov is the U.S. government's official web portal to all federal, state and local government web resources and services.